Budapest Ferihegy, Hungary

5:43 PM CET on February 06, 2016 (GMT +0100)
Ferihegy

Weather History for LHBP - October, 2013

Change the Weather History Date:

Thursday, October 17, 2013

  Actual Average Record
Temperature  
Mean Temperature 55 °F -  
Max Temperature 62 °F 52 °F 73 °F (2000)
Min Temperature 48 °F 36 °F 26 °F (2011)
Degree Days  
Heating Degree Days 10    
Growing Degree Days 5 (Base 50)    
Moisture  
Dew Point 46 °F    
Average Humidity 79    
Maximum Humidity 94    
Minimum Humidity 48    
Precipitation  
Precipitation 0.00 in - - ()
Sea Level Pressure  
Sea Level Pressure 29.90 in    
Wind  
Wind Speed 13 mph ()    
Max Wind Speed 24 mph    
Max Gust Speed -    
Visibility 6.2 miles    
Events      
Averages and records for this station are not official NWS values.
T = Trace of Precipitation, MM = Missing Value Source: Averaged Metar Reports

Daily Weather History Graph

Daily Weather History Graph

Search for Another Location

Airport or City:

Trip Planner

Search our weather history database for the weather conditions in past years. The results will help you decide how hot, cold, wet, or windy it might be!

Date:

Astronomy

Oct. 17, 2013 Rise Set
Actual Time 7:04 AM CEST 5:51 PM CEST
Civil Twilight 6:33 AM CEST 6:22 PM CEST
Nautical Twilight 5:57 AM CEST 6:57 PM CEST
Astronomical Twilight 5:22 AM CEST 7:33 PM CEST
Moon 4:58 PM CEST (10/17) 5:11 AM CEST (10/17)
Length of Visible Light 11h 49m
Length of Day
10h 47m
Waxing Gibbous, 97% of the Moon is Illuminated
Oct 17
Waxing Gibbous
Oct 19
Full
Oct 27
Last Quarter
Nov 3
New
Nov 10
First Quarter

Hourly Weather History & Observations

Time (CEST) Temp. Dew Point Humidity Pressure Visibility Wind Dir Wind Speed Gust Speed Precip Events Conditions
12:00 AM 50.0 °F 48.2 °F 94% 29.74 in 6.2 mi NNW 13.8 mph - N/A   Mostly Cloudy
12:30 AM 51.8 °F 48.2 °F 88% 29.74 in 6.2 mi NNW 15.0 mph - N/A   Mostly Cloudy
1:00 AM 50.0 °F 48.2 °F 94% 29.77 in 6.2 mi NW 15.0 mph - N/A   Mostly Cloudy
1:30 AM 51.8 °F 48.2 °F 88% 29.77 in 6.2 mi NW 13.8 mph - N/A   Mostly Cloudy
2:00 AM 51.8 °F 48.2 °F 88% 29.80 in 6.2 mi NW 12.7 mph - N/A   Mostly Cloudy
2:30 AM 51.8 °F 48.2 °F 88% 29.80 in 6.2 mi NW 13.8 mph - N/A   Mostly Cloudy
3:00 AM 51.8 °F 48.2 °F 88% 29.80 in 6.2 mi NW 13.8 mph - N/A   Mostly Cloudy
3:30 AM 51.8 °F 48.2 °F 88% 29.80 in 6.2 mi NW 13.8 mph - N/A   Mostly Cloudy
4:00 AM 51.8 °F 48.2 °F 88% 29.80 in 6.2 mi NW 12.7 mph - N/A   Mostly Cloudy
4:30 AM 50.0 °F 48.2 °F 94% 29.83 in 6.2 mi NW 12.7 mph - N/A   Mostly Cloudy
5:00 AM 51.8 °F 48.2 °F 88% 29.83 in 6.2 mi NW 12.7 mph - N/A   Overcast
5:30 AM 50.0 °F 48.2 °F 94% 29.83 in 6.2 mi NW 12.7 mph - N/A   Mostly Cloudy
6:00 AM 50.0 °F 48.2 °F 94% 29.86 in 6.2 mi NW 15.0 mph - N/A   Mostly Cloudy
6:30 AM 50.0 °F 46.4 °F 87% 29.86 in 6.2 mi NW 11.5 mph - N/A   Mostly Cloudy
7:00 AM 48.2 °F 46.4 °F 93% 29.86 in 6.2 mi NW 11.5 mph - N/A   Partly Cloudy
7:30 AM 48.2 °F 46.4 °F 93% 29.89 in - NW 10.4 mph - N/A   Clear
8:00 AM 48.2 °F 46.4 °F 93% 29.89 in - NW 12.7 mph - N/A   Clear
8:30 AM 50.0 °F 46.4 °F 87% 29.89 in - NW 12.7 mph - N/A   Clear
9:00 AM 50.0 °F 46.4 °F 87% 29.92 in - WNW 12.7 mph - N/A   Clear
9:30 AM 50.0 °F 46.4 °F 87% 29.92 in - WNW 13.8 mph - N/A   Clear
10:00 AM 50.0 °F 46.4 °F 87% 29.92 in - WNW 11.5 mph - N/A   Clear
10:30 AM 51.8 °F 46.4 °F 82% 29.92 in - WNW 13.8 mph - N/A   Clear
11:00 AM 53.6 °F 48.2 °F 82% 29.92 in - WNW 12.7 mph - N/A   Clear
11:30 AM 55.4 °F 48.2 °F 77% 29.92 in - WNW 10.4 mph - N/A   Clear
12:00 PM 59.0 °F 48.2 °F 67% 29.92 in - WNW 8.1 mph - N/A   Clear
12:30 PM 60.8 °F 48.2 °F 63% 29.92 in - WNW 9.2 mph - N/A   Clear
1:00 PM 60.8 °F 48.2 °F 63% 29.92 in - West 12.7 mph - N/A   Clear
1:30 PM 60.8 °F 46.4 °F 59% 29.92 in 6.2 mi WNW 20.7 mph - N/A   Partly Cloudy
2:00 PM 60.8 °F 46.4 °F 59% 29.92 in 6.2 mi WNW 23.0 mph - N/A   Partly Cloudy
2:30 PM 60.8 °F 44.6 °F 55% 29.92 in 6.2 mi West 23.0 mph - N/A   Partly Cloudy
3:00 PM 60.8 °F 42.8 °F 52% 29.92 in 6.2 mi WNW 18.4 mph - N/A   Partly Cloudy
3:30 PM 62.6 °F 42.8 °F 48% 29.92 in 6.2 mi WNW 19.6 mph - N/A   Partly Cloudy
4:00 PM 57.2 °F 41.0 °F 55% 29.92 in 6.2 mi West 24.2 mph - N/A   Scattered Clouds
4:30 PM 57.2 °F 42.8 °F 59% 29.92 in 6.2 mi WNW 21.9 mph - N/A   Scattered Clouds
5:00 PM 57.2 °F 42.8 °F 59% 29.95 in - WNW 18.4 mph - N/A   Clear
5:30 PM 55.4 °F 42.8 °F 63% 29.95 in - WNW 18.4 mph - N/A   Clear
6:00 PM 53.6 °F 44.6 °F 72% 29.95 in - WNW 20.7 mph - N/A   Clear
6:30 PM 53.6 °F 44.6 °F 72% 29.95 in - WNW 21.9 mph - N/A   Clear
7:00 PM 51.8 °F 46.4 °F 82% 29.95 in - WNW 17.3 mph - N/A   Clear
7:30 PM 50.0 °F 46.4 °F 87% 29.95 in - WNW 16.1 mph - N/A   Clear
8:00 PM 51.8 °F 46.4 °F 82% 29.95 in - WNW 13.8 mph - N/A   Clear
8:30 PM 50.0 °F 44.6 °F 82% 29.95 in - WNW 11.5 mph - N/A   Clear
9:00 PM 50.0 °F 44.6 °F 82% 29.98 in - WNW 11.5 mph - N/A   Clear
9:30 PM 50.0 °F 44.6 °F 82% 29.98 in - WNW 13.8 mph - N/A   Clear
10:00 PM 48.2 °F 44.6 °F 87% 29.98 in - WSW 5.8 mph - N/A   Clear
10:30 PM 50.0 °F 44.6 °F 82% 29.98 in - West 11.5 mph - N/A   Clear
11:00 PM 50.0 °F 44.6 °F 82% 29.98 in - West 12.7 mph - N/A   Clear
11:30 PM 50.0 °F 44.6 °F 82% 29.98 in - West 12.7 mph - N/A   Clear